Regional Weather Roundup
Issued by NWS

Home | Current Version | Previous Version | Text Only | Print | Product List | Glossary On
Versions: 1 2 3 4 5 6 7 8 9 10 11 12 13 14 15 16 17 18 19 20 21 22 23 24 25 26 27 28 29 30 31 32 33 34 35 36 37 38 39 40 41 42 43 44 45 46 47 48 49 50
000
ASUS43 KLMK 282002
RWRKY
KENTUCKY REGIONAL WEATHER ROUNDUP
NATIONAL WEATHER SERVICE LOUISVILLE KY
400 PM EDT THU JUL 28 2016

NOTE "FAIR" INDICATES FEW OR NO CLOUDS BELOW 12,000 FEET
WITH NO SIGNIFICANT WEATHER AND/OR OBSTRUCTIONS TO VISIBILITY.

KYZ001>023-026-027-061>063-070>075-282100-
WESTERN AND SOUTH CENTRAL KENTUCKY

CITY           SKY/WX    TMP DP  RH WIND       PRES   REMARKS
PADUCAH        MOSUNNY   88  75  65 W7        29.87F HX  97
HENDERSON      MOSUNNY   88  73  62 SW6       29.85F HX  96
OWENSBORO      PTSUNNY   85  76  74 SW8       29.88F HX  94
HOPKINSVILLE   NOT AVBL
BOWLING GREEN  CLOUDY    82  71  69 E3        29.90F
GLASGOW        NOT AVBL
$$

KYZ024-025-028>034-038-045-046-053-282100-
NORTH CENTRAL KENTUCKY

CITY           SKY/WX    TMP DP  RH WIND       PRES   REMARKS
LOUISVILLE/SDF PTSUNNY   85  71  63 W7        29.86F HX  90
LOUISVILLE/LOU MOSUNNY   84  70  62 W5        29.87F
FORT KNOX      NOT AVBL
$$

KYZ035>037-039>044-047>052-055>060-089>105-282100-
NORTHEAST KENTUCKY

CITY           SKY/WX    TMP DP  RH WIND       PRES   REMARKS
LEXINGTON      LGT RAIN  75  71  87 SW5       29.91F
COVINGTON      CLOUDY    81  71  71 CALM      29.89F
FRANKFORT      CLOUDY    79  72  79 VRB6      29.88F
$$

KYZ054-064>069-076>088-106>120-282100-
SOUTHEAST KENTUCKY

CITY           SKY/WX    TMP DP  RH WIND       PRES   REMARKS
JACKSON        CLOUDY    74  69  85 CALM      29.93F
LONDON         RAIN      72  68  87 CALM      29.93S FOG
SOMERSET       LGT RAIN  70  70 100 CALM      29.94S
MIDDLESBORO    CLOUDY    82  71  70 SW10      29.92R
MONTICELLO     RAIN     N/A N/A N/A VRB7      29.94F
$$




USA.gov is the U.S. government's official web portal to all federal, state and local government web resources and services.